Regional Weather Roundup
Issued by NWS

Home | Current Version | Previous Version | Graphics & Text | Print | Product List | Glossary On
Versions: 1 2 3 4 5 6 7 8 9 10 11 12 13 14 15 16 17 18 19 20 21 22 23 24 25 26 27 28 29 30 31 32 33 34 35 36 37 38 39 40 41 42 43 44 45 46 47 48 49
000
ASUS45 KBOU 261407
RWRCO

WEATHER ROUNDUP FOR COLORADO
NATIONAL WEATHER SERVICE DENVER/BOULDER CO
700 AM MST THU FEB 26 2015

NOTE: "FAIR" INDICATES FEW OR NO CLOUDS BELOW 12000 FEET WITH NO
SIGNIFICANT WEATHER AND/OR OBSTRUCTIONS TO VISIBILITY.

COZ001>005-013-030-031-261500-
...NORTHWEST COLORADO...

CITY           SKY/WX    TMP DP  RH WIND       PRES   REMARKS
CRAIG          CLOUDY    12   7  80 CALM      30.04S
HAYDEN         MOCLDY     9   7  92 CALM      30.01S
MEEKER         CLOUDY    15   9  76 NE5       30.02F WCI   8
MOUNT WERNER   NOT AVBL
STEAMBOAT SPGS CLOUDY    12   8  85 E6        30.00S WCI   2
WALDEN         CLOUDY    10   5  79 CALM      29.94F
$$

COZ006>008-011-261500-
...WEST CENTRAL VALLEYS...

CITY           SKY/WX    TMP DP  RH WIND       PRES   REMARKS
GRAND JUNCTION CLEAR     21  16  81 SE6       30.02F WCI  13
MONTROSE       PTCLDY    10   7  87 SE8       30.05S WCI  -2
EAGLE          PTCLDY    16  12  86 CALM      30.06R
RIFLE          PTCLDY    17  11  77 SE5       30.06S WCI  10
DELTA          PTCLDY    22  19  85 CALM      30.05S
NUCLA          PTCLDY    21  14  73 E10       30.04S WCI  10
$$

COZ017>023-064>068-261500-
...SOUTHWEST COLORADO...

CITY           SKY/WX    TMP DP  RH WIND       PRES   REMARKS
DURANGO        MOCLDY    14  11  87 CALM      29.97S
CORTEZ         CLEAR     19  15  84 NE6       30.01S WCI  11
PAGOSA SPRINGS MOCLDY    13  13  96 CALM      29.97S
TELLURIDE      MOCLDY    11   8  85 SE5       29.97R WCI   3
WOLF CREEK PAS PTCLDY     5  -6  61 SW6       29.93S WCI  -6
$$

COZ009-010-012-014-032>034-037-058>063-261500-
...CENTRAL COLORADO...

CITY           SKY/WX    TMP DP  RH WIND       PRES   REMARKS
ASPEN          PTCLDY     8   1  73 S7        29.97R WCI  -3
BUENA VISTA    LGT SNOW  11   8  89 CALM      29.98R
COPPER MTN     PTCLDY     5  -4  66 W20G26    29.82S WCI -15
BERTHOUD PASS  CLOUDY    -4  -9  77 W22       29.79S HAZE    WCI -28
COTTONWOOD PAS LGT SNOW  12   9  85 CALM      29.91R
GUNNISON       PTCLDY     3  -4  72 N3        30.01R
KREMMLING      LGT SNOW   1  -4  78 CALM      30.01S
LEADVILLE      PTCLDY    -2  -5  87 NE3       29.90R
MONARCH PASS     N/A      1  -2  85 MISG      29.93F
SALIDA         PTCLDY    15  11  85 E10       30.08R WCI   2
SUNLIGHT       PTCLDY   N/A N/A N/A CALM        N/A
WILKERSON PASS LGT SNOW N/A N/A N/A SW7       29.86F
$$

COZ069>075-261500-
...SAN LUIS VALLEY/SANGRE DE CRISTO MOUNTAINS...

CITY           SKY/WX    TMP DP  RH WIND       PRES   REMARKS
ALAMOSA        FOG        2  -1  88 SE3       29.98F VSB 1/4
LA VETA PASS   CLOUDY     3   0  85 MISG      29.93S VSB 1
SAGUACHE       CLOUDY    18  14  86 N5        29.98S WCI  11
$$

COZ035-036-038>040-261500-
...NORTHERN COLORADO FRONT RANGE...

CITY           SKY/WX    TMP DP  RH WIND       PRES   REMARKS
DENVER INTL AP FLURRIES   7   4  87 SE6       30.15R WCI  -3
DMNS CITY PARK   N/A     11   8  91 E3        30.17R
AURORA         MOCLDY     4   2  91 SE8       30.14S WCI -10
FRONT RANGE AP NOT AVBL
ERIE MUNI ARPT CLOUDY    14  10  87 S3        30.18R
BOULDER MUN AP LGT SNOW  14  12  92 NE5       30.16S WCI   6
CENTENNIAL     MOCLDY     5   3  91 E5        30.12R WCI  -4
BROOMFIELD     FLURRIES  12   9  85 E6        30.15R WCI   3
FORT COLLINS   CLOUDY    14   9  79 E7        30.19R WCI   4
LONGMONT       LGT SNOW  17  13  83 SE6       30.20S WCI   9
$$

COZ041-046-047-076>085-087-088-261500-
...PIKES PEAK/PALMER DIVIDE AND SOUTHERN FOOTHILLS...

CITY           SKY/WX    TMP DP  RH WIND       PRES   REMARKS
COLO. SPRINGS  LGT SNOW  13  10  88 SE7       30.10F FOG     WCI   3
A. F. ACADEMY  CLOUDY    10   7  85 SE3       30.06F HAZE
ELLICOTT       NOT AVBL
FALCON         LGT SNOW  11   8  87 CALM      30.06F
FORT CARSON    LGT SNOW  15  11  87 S5        30.11F VSB 1   WCI   7
LIMON          CLOUDY    11   8  88 NE10      30.15S WCI  -3
MONUMENT HILL  LGT SNOW   5   3  92 SE3       30.03S
TRINIDAD       LGT SNOW  16  13  88 N10       30.14R FOG     WCI   4
$$

COZ042>045-048>051-090-091-261500-
...NORTHEAST COLORADO...

CITY           SKY/WX    TMP DP  RH WIND       PRES   REMARKS
GREELEY ARPT   CLOUDY    16   3  57 E8        30.19S WCI   5
AKRON          FLURRIES   9   5  84 E8        30.21R WCI  -3
BURLINGTON     LGT SNOW  15   9  76 NE12      30.24S WCI   2
WRAY           CLOUDY    14   8  76 NE10      30.30S WCI   1
STERLING       LGT SNOW  12   9  85 E6        30.26S WCI   3
HOLYOKE        NOT AVBL
FORT MORGAN    FLURRIES  12   9  87 NE9       30.22S WCI   0
$$

COZ086-089-092>099-261500-
...SOUTHEAST COLORADO...

CITY           SKY/WX    TMP DP  RH WIND       PRES   REMARKS
PUEBLO         LGT SNOW  16  13  88 SE9       30.20S FOG     WCI   4
LA JUNTA       LGT SNOW  17  13  84 E9        30.24S FOG     WCI   6
LAMAR          CLOUDY    17  11  77 NE9       30.27R HAZE    WCI   6
SPRINGFIELD      N/A     15  12  88 NE9       30.23R WCI   3
$$



USA.gov is the U.S. government's official web portal to all federal, state and local government web resources and services.